Weather History for KSLN - November, 2013

Change the Weather History Date:

Tuesday, November 26, 2013

  Actual Average Record
Temperature  
Mean Temperature 28 °F 38 °F  
Max Temperature 40 °F 49 °F 76 °F (1910)
Min Temperature 16 °F 28 °F -2 °F (1975)
Degree Days  
Heating Degree Days 37 27  
Month to date heating degree days 560 524  
Since 1 July heating degree days 865 842  
Cooling Degree Days 0 0  
Month to date cooling degree days 0 0  
Year to date cooling degree days 1750 1646  
Moisture  
Dew Point 15 °F    
Average Humidity 54    
Maximum Humidity 81    
Minimum Humidity 27    
Precipitation  
Precipitation 0.00 in 0.03 in 0.65 in (1962)
Month to date precipitation 0.35 1.10  
Year to date precipitation 29.41 30.41  
Sea Level Pressure  
Sea Level Pressure 30.39 in    
Wind  
Wind Speed 13 mph (NNW)    
Max Wind Speed 29 mph    
Max Gust Speed 33 mph    
Visibility 10 miles    
Events Snow    
T = Trace of Precipitation, MM = Missing Value Source: NWS Daily Summary

Daily Weather History Graph

Daily Weather History Graph

Search for Another Location

Airport or City:

Trip Planner

Search our weather history database for the weather conditions in past years. The results will help you decide how hot, cold, wet, or windy it might be!

Date:

Astronomy

Nov. 26, 2013 Rise Set
Actual Time 7:25 AM CST 5:10 PM CST
Civil Twilight 6:56 AM CST 5:39 PM CST
Nautical Twilight 6:23 AM CST 6:12 PM CST
Astronomical Twilight 5:51 AM CST 6:44 PM CST
Moon 12:33 AM CST (11/26) 1:14 PM CST (11/26)
Length of Visible Light 10h 43m
Length of Day
9h 45m
Last Quarter, 41% of the Moon is Illuminated
Nov 26
Last Quarter
Dec 2
New
Dec 9
First Quarter
Dec 17
Full
Dec 25
Last Quarter

Hourly Weather History & Observations

Time (CST) Temp. Windchill Dew Point Humidity Pressure Visibility Wind Dir Wind Speed Gust Speed Precip Events Conditions
12:53 AM 24.1 °F 16.0 °F 19.0 °F 81% 30.28 in 10.0 mi WNW 6.9 mph - 0.00 in   Clear
1:53 AM 24.1 °F 16.0 °F 19.0 °F 81% 30.28 in 9.0 mi WNW 6.9 mph - 0.00 in Snow Light Snow
2:53 AM 24.1 °F 15.2 °F 19.0 °F 81% 30.28 in 10.0 mi NW 8.1 mph - 0.00 in   Clear
3:53 AM 23.0 °F 15.8 °F 18.0 °F 81% 30.29 in 10.0 mi NW 5.8 mph - 0.00 in   Clear
4:53 AM 23.0 °F 13.9 °F 18.0 °F 81% 30.30 in 10.0 mi NW 8.1 mph - 0.00 in   Clear
5:53 AM 23.0 °F 13.9 °F 18.0 °F 81% 30.32 in 10.0 mi NW 8.1 mph - 0.00 in   Clear
6:53 AM 23.0 °F 13.1 °F 18.0 °F 81% 30.34 in 9.0 mi WNW 9.2 mph - 0.00 in Snow Light Snow
7:53 AM 25.0 °F 16.3 °F 19.0 °F 78% 30.37 in 9.0 mi NW 8.1 mph - 0.00 in   Clear
8:53 AM 30.0 °F 18.3 °F 21.9 °F 72% 30.39 in 10.0 mi North 17.3 mph - N/A   Clear
9:53 AM 34.0 °F 21.8 °F 23.0 °F 64% 30.40 in 9.0 mi NNW 23.0 mph 29.9 mph 0.00 in   Clear
10:53 AM 36.0 °F 24.2 °F 21.9 °F 57% 30.41 in 9.0 mi North 24.2 mph 31.1 mph N/A   Mostly Cloudy
11:35 AM 37.4 °F 26.1 °F 21.2 °F 52% 30.36 in 9.0 mi North 24.2 mph 31.1 mph N/A   Scattered Clouds
11:53 AM 36.0 °F 23.9 °F 21.0 °F 55% 30.41 in 9.0 mi North 25.3 mph - N/A   Mostly Cloudy
12:53 PM 37.9 °F 26.8 °F 17.1 °F 43% 30.40 in 10.0 mi North 24.2 mph 32.2 mph N/A   Mostly Cloudy
1:53 PM 39.9 °F 30.2 °F 15.1 °F 36% 30.38 in 10.0 mi North 20.7 mph 32.2 mph N/A   Clear
2:53 PM 39.0 °F 28.0 °F 10.0 °F 30% 30.39 in 10.0 mi North 25.3 mph 32.2 mph N/A   Clear
3:53 PM 37.9 °F 28.2 °F 7.0 °F 28% 30.40 in 9.0 mi North 18.4 mph - 0.00 in   Clear
4:53 PM 35.1 °F 24.8 °F 8.1 °F 33% 30.43 in 10.0 mi North 17.3 mph - N/A   Clear
5:53 PM 28.9 °F 19.8 °F 10.0 °F 45% 30.44 in 10.0 mi North 10.4 mph - N/A   Clear
6:53 PM 26.1 °F 17.6 °F 10.0 °F 51% 30.46 in 10.0 mi North 8.1 mph - N/A   Clear
7:53 PM 23.0 °F 17.0 °F 10.0 °F 58% 30.48 in 10.0 mi NNW 4.6 mph - N/A   Clear
8:53 PM 21.0 °F 11.4 °F 10.0 °F 63% 30.49 in 10.0 mi NNW 8.1 mph - N/A   Clear
9:53 PM 19.9 °F 13.4 °F 8.1 °F 60% 30.50 in 10.0 mi WNW 4.6 mph - N/A   Clear
10:53 PM 18.0 °F 11.1 °F 7.0 °F 62% 30.51 in 10.0 mi NW 4.6 mph - 0.00 in   Clear
11:53 PM 17.1 °F 11.7 °F 7.0 °F 65% 30.51 in 10.0 mi NW 3.5 mph - 0.00 in   Clear